| time (UTC) | temp F | wind direction | speed MPH | gust MPH | rain 1hr in | rain 24hr in | rain mn in | humidity % | barometer mb |
| 20260504181003 | 67 | 173 | 2.0 | 8.0 | 0.00 | 0.00 | 0.00 | 28 | 999.3 |
| 20260504180511 | 68 | 234 | 1.0 | 8.0 | 0.00 | 0.00 | 0.00 | 30 | 999.2 |
| 20260504180012 | 68 | 302 | 1.0 | 11.0 | 0.00 | 0.00 | 0.00 | 33 | 999.1 |
| 20260504175504 | 68 | 231 | 2.0 | 11.0 | 0.00 | 0.00 | 0.00 | 32 | 999.0 |
| 20260504175004 | 69 | 39 | 3.0 | 10.0 | 0.00 | 0.00 | 0.00 | 34 | 998.9 |
| 20260504174519 | 69 | 284 | 1.0 | 10.0 | 0.00 | 0.00 | 0.00 | 34 | 998.9 |
| 20260504174007 | 69 | 344 | 3.0 | 10.0 | 0.00 | 0.00 | 0.00 | 35 | 999.0 |
| 20260504173503 | 69 | 175 | 2.0 | 8.0 | 0.00 | 0.00 | 0.00 | 32 | 998.9 |
| 20260504173018 | 69 | 248 | 2.0 | 10.0 | 0.00 | 0.00 | 0.00 | 36 | 999.0 |
| 20260504172510 | 69 | 347 | 3.0 | 10.0 | 0.00 | 0.00 | 0.00 | 36 | 999.0 |
| 20260504172012 | 68 | 238 | 2.0 | 9.0 | 0.00 | 0.00 | 0.00 | 37 | 999.0 |
| 20260504171515 | 67 | 225 | 3.0 | 9.0 | 0.00 | 0.00 | 0.00 | 33 | 999.1 |
| 20260504171015 | 67 | 249 | 0.0 | 8.0 | 0.00 | 0.00 | 0.00 | 33 | 999.1 |
| 20260504170513 | 68 | 275 | 2.0 | 10.0 | 0.00 | 0.00 | 0.00 | 32 | 999.1 |
| 20260504151006 | 65 | 299 | 2.0 | 8.0 | 0.00 | 0.00 | 0.00 | 45 | 998.5 |
| 20260504150511 | 65 | 222 | 2.0 | 7.0 | 0.00 | 0.00 | 0.00 | 46 | 998.5 |
| 20260504141011 | 62 | 39 | 1.0 | 7.0 | 0.00 | 0.00 | 0.00 | 47 | 998.4 |
| 20260504140508 | 62 | 80 | 2.0 | 10.0 | 0.00 | 0.00 | 0.00 | 47 | 998.3 |
| 20260504130504 | 57 | 224 | 4.0 | 15.0 | 0.00 | 0.00 | 0.00 | 51 | 997.7 |
| 20260504110505 | 52 | 146 | 3.0 | 9.0 | 0.00 | 0.00 | 0.00 | 54 | 998.3 |
| 20260504100502 | 50 | 257 | 2.0 | 7.0 | 0.00 | 0.00 | 0.00 | 55 | 999.0 |
| 20260504082003 | 47 | 159 | 0.0 | 1.0 | 0.00 | 0.00 | 0.00 | 60 | 1000.3 |
| 20260504081511 | 47 | 209 | 0.0 | 1.0 | 0.00 | 0.00 | 0.00 | 60 | 1000.4 |
| 20260504081003 | 47 | 224 | 0.0 | 2.0 | 0.00 | 0.00 | 0.00 | 60 | 1000.6 |
| 20260504080503 | 47 | 226 | 0.0 | 3.0 | 0.00 | 0.00 | 0.00 | 61 | 1000.8 |
| 20260504050504 | 48 | 311 | 0.0 | 0.0 | 0.00 | 0.00 | 0.00 | 56 | 1003.6 |
| 20260504050005 | 48 | 311 | 0.0 | 0.0 | 0.00 | 0.00 | 0.00 | 56 | 1003.7 |
| 20260504045503 | 48 | 311 | 0.0 | 0.0 | 0.00 | 0.00 | 0.00 | 55 | 1003.7 |
| 20260504045003 | 49 | 311 | 0.0 | 0.0 | 0.00 | 0.00 | 0.00 | 55 | 1003.6 |
| 20260504044510 | 49 | 311 | 0.0 | 0.0 | 0.00 | 0.00 | 0.00 | 55 | 1003.7 |
| 20260504044004 | 49 | 311 | 0.0 | 0.0 | 0.00 | 0.00 | 0.00 | 54 | 1003.8 |
| 20260504043503 | 49 | 311 | 0.0 | 0.0 | 0.00 | 0.00 | 0.00 | 54 | 1003.8 |
| 20260504043009 | 49 | 311 | 0.0 | 0.0 | 0.00 | 0.00 | 0.00 | 54 | 1003.9 |
| 20260504042503 | 50 | 311 | 0.0 | 0.0 | 0.00 | 0.00 | 0.00 | 53 | 1004.0 |
| 20260504042003 | 50 | 311 | 0.0 | 0.0 | 0.00 | 0.00 | 0.00 | 53 | 1004.0 |
| 20260504041507 | 50 | 311 | 0.0 | 0.0 | 0.00 | 0.00 | 0.00 | 53 | 1004.2 |
| 20260504041005 | 50 | 311 | 0.0 | 0.0 | 0.00 | 0.00 | 0.00 | 52 | 1004.2 |
| 20260504040505 | 51 | 311 | 0.0 | 0.0 | 0.00 | 0.00 | 0.00 | 52 | 1004.3 |
| 20260504040003 | 51 | 311 | 0.0 | 0.0 | 0.00 | 0.00 | 0.00 | 51 | 1004.4 |
| 20260504035503 | 51 | 311 | 0.0 | 0.0 | 0.00 | 0.00 | 0.00 | 51 | 1004.5 |
| 20260504035006 | 52 | 311 | 0.0 | 0.0 | 0.00 | 0.00 | 0.00 | 50 | 1004.6 |
| 20260504034502 | 52 | 311 | 0.0 | 0.0 | 0.00 | 0.00 | 0.00 | 50 | 1004.6 |
| 20260504034002 | 52 | 311 | 0.0 | 0.0 | 0.00 | 0.00 | 0.00 | 49 | 1004.7 |
| 20260504033503 | 53 | 311 | 0.0 | 0.0 | 0.00 | 0.00 | 0.00 | 49 | 1004.6 |
| 20260504033006 | 53 | 311 | 0.0 | 0.0 | 0.00 | 0.00 | 0.00 | 48 | 1004.6 |
| 20260504032503 | 53 | 311 | 0.0 | 0.0 | 0.00 | 0.00 | 0.00 | 48 | 1004.7 |
| 20260504032005 | 54 | 311 | 0.0 | 0.0 | 0.00 | 0.00 | 0.00 | 47 | 1004.8 |
| 20260504031509 | 54 | 311 | 0.0 | 1.0 | 0.00 | 0.00 | 0.00 | 46 | 1005.0 |
| 20260504031003 | 54 | 311 | 0.0 | 1.0 | 0.00 | 0.00 | 0.00 | 46 | 1005.0 |
| 20260504030503 | 55 | 311 | 0.0 | 1.0 | 0.00 | 0.00 | 0.00 | 46 | 1005.1 |
| 20260504030030 | 55 | 311 | 0.0 | 0.0 | 0.00 | 0.00 | 0.00 | 46 | 1005.2 |
| 20260504025512 | 55 | 311 | 0.0 | 0.0 | 0.00 | 0.00 | 0.00 | 45 | 1005.2 |
| 20260504025002 | 56 | 311 | 0.0 | 0.0 | 0.00 | 0.00 | 0.00 | 45 | 1005.3 |
| 20260504024509 | 56 | 311 | 0.0 | 0.0 | 0.00 | 0.00 | 0.00 | 45 | 1005.1 |
| 20260504024003 | 56 | 311 | 0.0 | 0.0 | 0.00 | 0.00 | 0.00 | 44 | 1005.2 |
| 20260504023506 | 57 | 311 | 0.0 | 0.0 | 0.00 | 0.00 | 0.00 | 43 | 1005.2 |
| 20260504023003 | 57 | 311 | 0.0 | 0.0 | 0.00 | 0.00 | 0.00 | 42 | 1005.1 |
| 20260504022502 | 57 | 311 | 0.0 | 0.0 | 0.00 | 0.00 | 0.00 | 42 | 1005.1 |
| 20260504022003 | 58 | 311 | 0.0 | 0.0 | 0.00 | 0.00 | 0.00 | 41 | 1005.1 |
| 20260504021504 | 58 | 311 | 0.0 | 0.0 | 0.00 | 0.00 | 0.00 | 40 | 1005.1 |
| 20260504021004 | 59 | 311 | 0.0 | 0.0 | 0.00 | 0.00 | 0.00 | 40 | 1005.1 |
| 20260504020505 | 59 | 311 | 0.0 | 0.0 | 0.00 | 0.00 | 0.00 | 39 | 1005.1 |
| 20260504020008 | 59 | 311 | 0.0 | 0.0 | 0.00 | 0.00 | 0.00 | 39 | 1005.0 |
| 20260504015503 | 60 | 311 | 0.0 | 0.0 | 0.00 | 0.00 | 0.00 | 39 | 1005.1 |
| 20260504015004 | 60 | 311 | 0.0 | 0.0 | 0.00 | 0.00 | 0.00 | 38 | 1005.0 |
| 20260504014531 | 61 | 311 | 0.0 | 0.0 | 0.00 | 0.00 | 0.00 | 37 | 1005.0 |
| 20260504014008 | 61 | 311 | 0.0 | 0.0 | 0.00 | 0.00 | 0.00 | 36 | 1004.9 |
| 20260504013503 | 62 | 311 | 0.0 | 0.0 | 0.00 | 0.00 | 0.00 | 36 | 1004.9 |
| 20260504013013 | 63 | 311 | 0.0 | 0.0 | 0.00 | 0.00 | 0.00 | 35 | 1004.9 |
| 20260504012508 | 63 | 311 | 0.0 | 0.0 | 0.00 | 0.00 | 0.00 | 34 | 1004.9 |
| 20260504012003 | 64 | 311 | 0.0 | 0.0 | 0.00 | 0.00 | 0.00 | 33 | 1004.9 |
| 20260504011508 | 64 | 311 | 0.0 | 0.0 | 0.00 | 0.00 | 0.00 | 33 | 1004.9 |
| 20260504011007 | 65 | 311 | 0.0 | 0.0 | 0.00 | 0.00 | 0.00 | 32 | 1004.9 |
| 20260504010503 | 65 | 311 | 0.0 | 1.0 | 0.00 | 0.00 | 0.00 | 32 | 1004.9 |
| 20260504010004 | 65 | 311 | 0.0 | 1.0 | 0.00 | 0.00 | 0.00 | 31 | 1004.8 |
| 20260504005503 | 66 | 311 | 0.0 | 1.0 | 0.00 | 0.00 | 0.00 | 31 | 1004.8 |
| 20260504005006 | 66 | 306 | 0.0 | 2.0 | 0.00 | 0.00 | 0.00 | 31 | 1004.8 |
| 20260504004510 | 66 | 306 | 0.0 | 3.0 | 0.00 | 0.00 | 0.00 | 30 | 1004.9 |
| 20260504004006 | 66 | 308 | 0.0 | 5.0 | 0.00 | 0.00 | 0.00 | 30 | 1004.9 |
| 20260504003507 | 67 | 360 | 0.0 | 5.0 | 0.00 | 0.00 | 0.00 | 30 | 1004.9 |
| 20260504003026 | 67 | 304 | 0.0 | 4.0 | 0.00 | 0.00 | 0.00 | 30 | 1004.9 |
| 20260504002506 | 67 | 317 | 1.0 | 4.0 | 0.00 | 0.00 | 0.00 | 29 | 1004.9 |
| 20260504002007 | 67 | 5 | 0.0 | 2.0 | 0.00 | 0.00 | 0.00 | 29 | 1005.0 |
| 20260504001517 | 68 | 352 | 0.0 | 4.0 | 0.00 | 0.00 | 0.00 | 28 | 1005.0 |
| 20260504001007 | 68 | 265 | 1.0 | 5.0 | 0.00 | 0.00 | 0.00 | 28 | 1005.0 |
| 20260504000503 | 68 | 16 | 1.0 | 6.0 | 0.00 | 0.00 | 0.00 | 28 | 1005.0 |
| 20260504000020 | 68 | 306 | 1.0 | 6.0 | 0.00 | 0.00 | 0.00 | 28 | 1005.0 |
| 20260503235509 | 68 | 37 | 1.0 | 5.0 | 0.00 | 0.00 | 0.00 | 28 | 1005.0 |
| 20260503235005 | 68 | 338 | 1.0 | 6.0 | 0.00 | 0.00 | 0.00 | 29 | 1005.0 |
| 20260503234525 | 68 | 284 | 1.0 | 7.0 | 0.00 | 0.00 | 0.00 | 30 | 1004.9 |
| 20260503234004 | 69 | 304 | 1.0 | 8.0 | 0.00 | 0.00 | 0.00 | 29 | 1005.0 |
| 20260503233504 | 69 | 255 | 2.0 | 8.0 | 0.00 | 0.00 | 0.00 | 28 | 1005.1 |
| 20260503233012 | 69 | 340 | 3.0 | 8.0 | 0.00 | 0.00 | 0.00 | 27 | 1005.1 |
| 20260503232507 | 69 | 344 | 0.0 | 5.0 | 0.00 | 0.00 | 0.00 | 27 | 1005.1 |
| 20260503232006 | 69 | 342 | 1.0 | 9.0 | 0.00 | 0.00 | 0.00 | 27 | 1005.1 |
| 20260503231512 | 70 | 40 | 1.0 | 9.0 | 0.00 | 0.00 | 0.00 | 26 | 1005.3 |
| 20260503231007 | 70 | 334 | 3.0 | 9.0 | 0.00 | 0.00 | 0.00 | 26 | 1005.3 |
| 20260503230508 | 71 | 310 | 2.0 | 9.0 | 0.00 | 0.00 | 0.00 | 25 | 1005.2 |
| 20260503230020 | 71 | 261 | 1.0 | 9.0 | 0.00 | 0.00 | 0.00 | 25 | 1005.2 |
| 20260503225509 | 71 | 39 | 2.0 | 7.0 | 0.00 | 0.00 | 0.00 | 25 | 1005.1 |
| 20260503225005 | 72 | 112 | 1.0 | 5.0 | 0.00 | 0.00 | 0.00 | 25 | 1005.0 |
| 20260503224521 | 72 | 352 | 1.0 | 7.0 | 0.00 | 0.00 | 0.00 | 26 | 1005.0 |
| 20260503224009 | 72 | 237 | 2.0 | 7.0 | 0.00 | 0.00 | 0.00 | 26 | 1004.9 |
| 20260503223506 | 73 | 313 | 2.0 | 8.0 | 0.00 | 0.00 | 0.00 | 26 | 1005.0 |
| 20260503223010 | 73 | 248 | 1.0 | 9.0 | 0.00 | 0.00 | 0.00 | 26 | 1005.0 |
| 20260503222507 | 73 | 19 | 2.0 | 9.0 | 0.00 | 0.00 | 0.00 | 26 | 1005.1 |
| 20260503222006 | 74 | 310 | 2.0 | 8.0 | 0.00 | 0.00 | 0.00 | 27 | 1005.0 |
| 20260503221514 | 74 | 327 | 1.0 | 5.0 | 0.00 | 0.00 | 0.00 | 26 | 1005.0 |
| 20260503221008 | 74 | 119 | 1.0 | 6.0 | 0.00 | 0.00 | 0.00 | 26 | 1005.0 |
| 20260503220511 | 74 | 274 | 1.0 | 8.0 | 0.00 | 0.00 | 0.00 | 26 | 1004.9 |
| 20260503220016 | 74 | 284 | 2.0 | 11.0 | 0.00 | 0.00 | 0.00 | 26 | 1005.0 |
| 20260503215511 | 74 | 252 | 3.0 | 11.0 | 0.00 | 0.00 | 0.00 | 25 | 1005.1 |
| 20260503215007 | 74 | 352 | 2.0 | 8.0 | 0.00 | 0.00 | 0.00 | 25 | 1005.1 |
| 20260503214513 | 74 | 53 | 2.0 | 12.0 | 0.00 | 0.00 | 0.00 | 25 | 1005.0 |
| 20260503214007 | 75 | 236 | 2.0 | 12.0 | 0.00 | 0.00 | 0.00 | 26 | 1005.2 |
| 20260503213508 | 75 | 330 | 2.0 | 10.0 | 0.00 | 0.00 | 0.00 | 26 | 1005.0 |
| 20260503213025 | 75 | 321 | 1.0 | 12.0 | 0.00 | 0.00 | 0.00 | 26 | 1005.1 |
| 20260503212508 | 75 | 277 | 2.0 | 12.0 | 0.00 | 0.00 | 0.00 | 27 | 1005.1 |
| 20260503212009 | 75 | 342 | 1.0 | 12.0 | 0.00 | 0.00 | 0.00 | 26 | 1005.1 |
| 20260503211514 | 75 | 25 | 2.0 | 12.0 | 0.00 | 0.00 | 0.00 | 27 | 1005.2 |
| 20260503211005 | 75 | 315 | 1.0 | 10.0 | 0.00 | 0.00 | 0.00 | 27 | 1005.2 |
| 20260503210508 | 75 | 344 | 2.0 | 12.0 | 0.00 | 0.00 | 0.00 | 27 | 1005.1 |
| 20260503210025 | 75 | 317 | 3.0 | 12.0 | 0.00 | 0.00 | 0.00 | 27 | 1005.2 |
| 20260503205507 | 75 | 298 | 2.0 | 8.0 | 0.00 | 0.00 | 0.00 | 28 | 1005.3 |
| 20260503205005 | 75 | 24 | 3.0 | 8.0 | 0.00 | 0.00 | 0.00 | 28 | 1005.3 |
| 20260503204526 | 75 | 55 | 1.0 | 14.0 | 0.00 | 0.00 | 0.00 | 30 | 1005.4 |
| 20260503204003 | 75 | 266 | 2.0 | 14.0 | 0.00 | 0.00 | 0.00 | 29 | 1005.5 |
| 20260503203505 | 75 | 210 | 3.0 | 14.0 | 0.00 | 0.00 | 0.00 | 29 | 1005.6 |
| 20260503203009 | 75 | 55 | 2.0 | 9.0 | 0.00 | 0.00 | 0.00 | 30 | 1005.6 |
| 20260503202504 | 75 | 22 | 0.0 | 9.0 | 0.00 | 0.00 | 0.00 | 30 | 1005.6 |
| 20260503202004 | 75 | 352 | 2.0 | 8.0 | 0.00 | 0.00 | 0.00 | 31 | 1005.6 |
| 20260503201512 | 75 | 108 | 2.0 | 12.0 | 0.00 | 0.00 | 0.00 | 30 | 1005.5 |
| 20260503201007 | 75 | 315 | 4.0 | 12.0 | 0.00 | 0.00 | 0.00 | 28 | 1005.6 |
| 20260503200503 | 75 | 348 | 2.0 | 10.0 | 0.00 | 0.00 | 0.00 | 29 | 1005.7 |
| 20260503200012 | 75 | 248 | 2.0 | 7.0 | 0.00 | 0.00 | 0.00 | 32 | 1005.6 |
| 20260503195511 | 75 | 134 | 1.0 | 15.0 | 0.00 | 0.00 | 0.00 | 27 | 1005.6 |
| 20260503195005 | 75 | 250 | 2.0 | 15.0 | 0.00 | 0.00 | 0.00 | 27 | 1005.6 |
| 20260503194510 | 75 | 275 | 3.0 | 15.0 | 0.00 | 0.00 | 0.00 | 28 | 1005.6 |
| 20260503194002 | 75 | 346 | 2.0 | 12.0 | 0.00 | 0.00 | 0.00 | 28 | 1005.7 |
| 20260503193504 | 75 | 290 | 2.0 | 12.0 | 0.00 | 0.00 | 0.00 | 28 | 1005.8 |
| 20260503193001 | 75 | 334 | 3.0 | 12.0 | 0.00 | 0.00 | 0.00 | 29 | 1005.8 |
| 20260503192502 | 75 | 40 | 2.0 | 12.0 | 0.00 | 0.00 | 0.00 | 28 | 1005.8 |
| 20260503192008 | 75 | 352 | 3.0 | 10.0 | 0.00 | 0.00 | 0.00 | 30 | 1005.7 |
| 20260503191503 | 75 | 288 | 1.0 | 10.0 | 0.00 | 0.00 | 0.00 | 32 | 1005.7 |
| 20260503191006 | 75 | 332 | 3.0 | 10.0 | 0.00 | 0.00 | 0.00 | 31 | 1005.9 |
| 20260503190508 | 74 | 233 | 2.0 | 7.0 | 0.00 | 0.00 | 0.00 | 33 | 1005.8 |
| 20260503190011 | 74 | 5 | 2.0 | 7.0 | 0.00 | 0.00 | 0.00 | 32 | 1005.9 |
| 20260503185504 | 74 | 250 | 2.0 | 6.0 | 0.00 | 0.00 | 0.00 | 32 | 1005.8 |
| 20260503185007 | 73 | 54 | 2.0 | 9.0 | 0.00 | 0.00 | 0.00 | 32 | 1005.8 |
| 20260503184532 | 73 | 5 | 2.0 | 10.0 | 0.00 | 0.00 | 0.00 | 32 | 1005.8 |
| 20260503184004 | 73 | 297 | 3.0 | 12.0 | 0.00 | 0.00 | 0.00 | 32 | 1006.0 |
| 20260503183506 | 73 | 292 | 3.0 | 12.0 | 0.00 | 0.00 | 0.00 | 32 | 1006.1 |
| 20260503183017 | 73 | 310 | 3.0 | 11.0 | 0.00 | 0.00 | 0.00 | 36 | 1006.0 |
| 20260503182510 | 72 | 283 | 2.0 | 9.0 | 0.00 | 0.00 | 0.00 | 35 | 1005.9 |
| 20260503182004 | 72 | 318 | 3.0 | 8.0 | 0.00 | 0.00 | 0.00 | 36 | 1006.0 |
| 20260503181506 | 72 | 61 | 1.0 | 12.0 | 0.00 | 0.00 | 0.00 | 38 | 1006.1 |